Weather History for Santa Ana, CA

Change the Weather History Date:

Tuesday, May 14, 2013

  Actual Average Record
Temperature  
Mean Temperature 69 °F 65 °F  
Max Temperature 76 °F 72 °F 106 °F (2014)
Min Temperature 61 °F 58 °F 54 °F (2000)
Degree Days  
Heating Degree Days 0 1  
Month to date heating degree days 6 25  
Since 1 July heating degree days 1093 1232  
Cooling Degree Days 4 1  
Month to date cooling degree days 46 14  
Year to date cooling degree days 53 43  
Growing Degree Days 18 (Base 50)    
Moisture  
Dew Point 55 °F    
Average Humidity 68    
Maximum Humidity 90    
Minimum Humidity 46    
Precipitation  
Precipitation 0.00 in 0.01 in 0.24 in (1962)
Month to date precipitation 0.28 0.20  
Year to date precipitation 1.96 8.85  
Since 1 July precipitation 4.98 13.22  
Snow  
Snow 0.00 in - - ()
Month to date snowfall 0.0  
Year to date snowfall 0.0  
Since 1 July snowfall 0.0  
Snow Depth 0.00 in    
Sea Level Pressure  
Sea Level Pressure 29.95 in    
Wind  
Wind Speed 7 mph (SW)    
Max Wind Speed 13 mph    
Max Gust Speed 18 mph    
Visibility 10 miles    
Events      
T = Trace of Precipitation, MM = Missing Value Source: NWS Daily Summary

Daily Weather History Graph

Daily Weather History Graph

Search for Another Location

Airport:

Trip Planner

Search our weather history database for the weather conditions in past years. The results will help you decide how hot, cold, wet, or windy it might be!

Date:

Astronomy

May. 14, 2013 Rise Set
Actual Time 5:51 AM PDT 7:44 PM PDT
Civil Twilight 5:23 AM PDT 8:12 PM PDT
Nautical Twilight 4:50 AM PDT 8:45 PM PDT
Astronomical Twilight 4:15 AM PDT 9:21 PM PDT
Moon 9:34 AM PDT (5/14) 11:36 PM PDT (5/14)
Length of Visible Light 14h 48m
Length of Day
13h 53m
Waxing Crescent, 19% of the Moon is Illuminated
May 14
Waxing Crescent
May 17
First Quarter
May 24
Full
May 31
Last Quarter
Jun 8
New

Hourly Weather History & Observations

Time (PDT) Temp. Dew Point Humidity Pressure Visibility Wind Dir Wind Speed Gust Speed Precip Events Conditions
12:53 AM 64.0 °F 55.0 °F 73% 29.91 in 10.0 mi South 6.9 mph - N/A   Clear
1:53 AM 63.0 °F 55.0 °F 75% 29.91 in 10.0 mi South 6.9 mph - N/A   Clear
2:53 AM 63.0 °F 55.0 °F 75% 29.91 in 10.0 mi South 6.9 mph - N/A   Clear
3:53 AM 62.1 °F 55.9 °F 80% 29.91 in 10.0 mi SSW 6.9 mph - N/A   Clear
4:53 AM 62.1 °F 55.0 °F 78% 29.92 in 10.0 mi SW 4.6 mph - N/A   Clear
5:53 AM 61.0 °F 57.0 °F 87% 29.93 in 9.0 mi SSW 6.9 mph - N/A   Clear
6:49 AM 62.6 °F 57.2 °F 82% 29.95 in 9.0 mi South 5.8 mph - N/A   Scattered Clouds
6:53 AM 62.1 °F 57.0 °F 84% 29.95 in 9.0 mi South 4.6 mph - N/A   Scattered Clouds
7:53 AM 64.9 °F 55.9 °F 73% 29.97 in 10.0 mi WSW 4.6 mph - N/A   Scattered Clouds
8:53 AM 66.0 °F 55.9 °F 70% 29.97 in 10.0 mi Variable 3.5 mph - N/A   Scattered Clouds
9:53 AM 69.1 °F 55.9 °F 63% 29.97 in 10.0 mi WSW 5.8 mph - N/A   Mostly Cloudy
10:53 AM 70.0 °F 55.0 °F 59% 29.98 in 10.0 mi SW 9.2 mph - N/A   Scattered Clouds
11:53 AM 71.1 °F 54.0 °F 55% 29.98 in 10.0 mi SW 9.2 mph - N/A   Scattered Clouds
12:53 PM 73.0 °F 53.1 °F 49% 29.96 in 10.0 mi SW 8.1 mph - N/A   Scattered Clouds
1:53 PM 75.0 °F 54.0 °F 48% 29.95 in 10.0 mi SW 10.4 mph - N/A   Scattered Clouds
2:53 PM 72.0 °F 54.0 °F 53% 29.95 in 10.0 mi SW 10.4 mph 18.4 mph N/A   Scattered Clouds
3:53 PM 73.0 °F 52.0 °F 48% 29.93 in 10.0 mi West 8.1 mph - N/A   Scattered Clouds
4:53 PM 69.1 °F 54.0 °F 58% 29.93 in 10.0 mi WSW 9.2 mph - N/A   Scattered Clouds
5:53 PM 70.0 °F 54.0 °F 57% 29.94 in 10.0 mi SW 8.1 mph - N/A   Partly Cloudy
6:53 PM 66.9 °F 54.0 °F 63% 29.95 in 10.0 mi SW 6.9 mph - N/A   Partly Cloudy
7:53 PM 63.0 °F 54.0 °F 72% 29.97 in 8.0 mi WSW 5.8 mph - N/A   Partly Cloudy
8:53 PM 62.1 °F 54.0 °F 75% 29.98 in 9.0 mi WSW 4.6 mph - N/A   Clear
9:53 PM 61.0 °F 55.0 °F 81% 29.99 in 8.0 mi WSW 3.5 mph - N/A   Clear
10:53 PM 60.1 °F 54.0 °F 80% 30.00 in 8.0 mi SSW 4.6 mph - N/A   Clear
11:53 PM 60.1 °F 54.0 °F 80% 30.00 in 8.0 mi South 4.6 mph - N/A   Clear